Location: Franzen
(48.6167°N, 15.3833°E)
Time: 02:52:19
(UTC+00:00)

Transit 2A - Pass Details

Date: 04 August 2021
Orbit: 594 x 964 km, 66.7° (Epoch: 27 September)

Event Time Altitude Azimuth Distance (km) Brightness Sun altitude
Rises 13:55:34 0° 318° (NW) 3,268 9.4 43.2°
Reaches altitude 10° 13:58:04 10° 309° (NW) 2,396 9.0 42.8°
Maximum altitude 14:02:59 33° 246° (WSW) 1,408 9.9 42.1°
Drops below altitude 10° 14:08:16 10° 185° (S) 2,587 9.2 41.3°
Sets 14:11:06 0° 176° (S) 3,567 9.7 40.9°
